Tracking 23726 objects as of 24-Sep-2021
HD Live streaming from Space Station
objects crossing your sky now

RSW-02

Track RSW-02 now!
10-day predictions


NORAD ID: 49114
Int'l Code: 2021-076C
Perigee: 1,093.0 km
Apogee: 1,119.8 km
Inclination: 86.4 °
Period: 107.2 minutes
Semi major axis: 7477 km
RCS: Unknown
Launch date: August 24, 2021
Source: People's Republic of China (PRC)
Launch site: Jiuquan Satellite Launch Center, China (JSC)
aabbcc
Your satellite tracking list
Your tracking list is empty




NASA's NSSDC Master Catalog

Two Line Element Set (TLE):
1 49114U 21076C   21267.06845653  .00000030  00000-0  26024-4 0  9991
2 49114  86.4054  54.9805 0017879 209.9825 150.0299 13.42697404  4107
Source of the keplerian elements: AFSPC